Group_ship,Cruise,JD_GMT,Date_DDMMYYYY,TIME_HH:MM:SS,Lat_dec_degree,Long_dec_degree,xCO2eq_ppm,xCO2a_ppm,Pres_Equi_hPa,Pres_sealevel_hPa,EqTemp_C,SST(TSG)_C,Sal(TSG)_Permil,Water_flow_l/min,Gasflow_IR_ml/min,Temp_IR_C,Pres_IR_hPa,Ship_heading_true_degree,Ship_speed_knot,Wind_dir_rel_degree,Wind_speed_rel_m/s,fCO2W@SST_uatm,Qcflag_water,fCO2a_uatm,Qcflag_air,dfCO2_uatm,Fluoro_ug/l,Wind_speed_true_m/s,Wind_dir_true_degree,Air_temp_C,Oxygen
AOML_Explorer,Ex0747C9,328.029,24112007,0:42:04,40.442,-73.863,392.04,-9,1024.65,1022.2,13.13,12.47,32.324,1.41,103.609,29.286,1024.645,-9,-9,289,0,378.79,2,-9,9,-9,0.42,12.05,318.89,3.25,281.17
AOML_Explorer,Ex0747C9,328.031,24112007,0:44:37,40.442,-73.863,391.57,-9,1024.64,1022.2,13.15,12.55,32.326,1.383,103.368,29.278,1024.636,-9,-9,209,1.029,379.2,2,-9,9,-9,0.42,12.96,320.86,3.13,281.01
AOML_Explorer,Ex0747C9,328.033,24112007,0:47:10,40.442,-73.863,391.74,-9,1024.59,1022,13.17,12.7,32.464,1.379,103.51,29.271,1024.593,-9,-9,244,2.059,381.54,2,-9,9,-9,0.54,13.07,326.98,3.62,280.25
AOML_Explorer,Ex0747C9,328.035,24112007,0:49:43,40.442,-73.863,392.81,-9,1024.6,1022.1,13.22,12.84,32.487,1.415,103.519,29.264,1024.605,-9,-9,218,0.515,383.89,2,-9,9,-9,0.31,12.46,320,3.7,278.21
AOML_Explorer,Ex0747C9,328.036,24112007,0:52:16,40.442,-73.863,394.2,-9,1024.51,1022,13.34,12.92,32.57,1.439,103.302,29.259,1024.515,-9,-9,222,3.088,384.46,2,-9,9,-9,0.25,14.51,326.74,3.78,272.39
AOML_Explorer,Ex0747C9,328.038,24112007,0:54:49,40.442,-73.863,399.52,-9,1024.49,1021.9,13.46,12.93,32.603,1.412,103.638,29.249,1024.49,-9,-9,236,5.147,387.88,2,-9,9,-9,0.23,15.56,334.58,3.91,269.14
AOML_Explorer,Ex0747C9,328.04,24112007,0:57:22,40.442,-73.863,409.48,-9,1024.45,1022,13.53,12.94,32.614,1.366,103.417,29.243,1024.454,-9,-9,249,2.574,396.44,2,-9,9,-9,0.23,13.24,329.22,3.85,267.57
AOML_Explorer,Ex0747C9,328.042,24112007,0:59:55,40.125,-73.46,418.16,-9,1024.55,1022.1,13.54,12.9,32.63,1.369,103.345,29.24,1024.548,141.9,14.8,283,2.059,404.21,2,-9,9,-9,0.25,11.81,331.43,3.73,268.26
AOML_Explorer,Ex0747C9,328.057,24112007,1:21:40,40.077,-73.409,420.71,-9,1024.89,1022.3,13.53,12.84,32.666,1.401,103.161,29.248,1024.887,-9,-9,86,1.544,405.94,2,-9,9,-9,0.22,12.02,328.54,3.43,269.65
AOML_Explorer,Ex0747C9,328.058,24112007,1:24:13,40.077,-73.409,424.31,-9,1024.92,1022.3,13.49,12.82,32.674,1.382,103.192,29.25,1024.923,-9,-9,88,3.603,409.65,2,-9,9,-9,0.25,12.46,325.48,3.68,268.72
AOML_Explorer,Ex0747C9,328.06,24112007,1:26:46,40.077,-73.409,427.01,-9,1025,1022.2,13.49,12.84,32.668,1.438,103.236,29.247,1025.002,-9,-9,99,2.574,412.63,2,-9,9,-9,0.24,12.72,338.19,3.72,268.88
AOML_Explorer,Ex0747C9,328.062,24112007,1:29:19,40.077,-73.409,429.02,-9,1024.95,1021.8,13.48,12.87,32.672,1.428,103.47,29.241,1024.955,-9,-9,115,9.265,415.3,2,-9,9,-9,0.25,18.08,329.69,3.82,270.16
AOML_Explorer,Ex0747C9,328.064,24112007,1:31:52,40.077,-73.409,429.64,-9,1025.14,1022.3,13.5,12.89,32.677,1.382,103.531,29.239,1025.135,-9,-9,100,2.574,416.17,2,-9,9,-9,0.25,12.73,346.84,3.86,271.37
AOML_Explorer,Ex0747C9,328.066,24112007,1:34:25,40.077,-73.409,427.53,-9,1025.02,1022.5,13.52,12.88,32.7,1.32,103.389,29.234,1025.02,-9,-9,93,3.603,413.29,2,-9,9,-9,0.28,12.78,342.3,4.06,272.99
AOML_Explorer,Ex0747C9,328.067,24112007,1:36:58,40.077,-73.409,425.51,-9,1025.05,1022.2,13.55,12.84,32.717,1.405,103.449,29.231,1025.052,-9,-9,114,7.721,410.27,2,-9,9,-9,0.27,16.79,333.64,4.15,274.35
AOML_Explorer,Ex0747C9,328.069,24112007,1:39:31,40.077,-73.409,423.75,-9,1024.94,1022.4,13.54,12.79,32.744,1.375,103.439,29.227,1024.944,-9,-9,98,1.029,407.87,2,-9,9,-9,0.29,12.29,352.88,4.11,274.98
AOML_Explorer,Ex0747C9,328.071,24112007,1:42:04,40.077,-73.409,421.17,-9,1024.96,1022.2,13.52,12.79,32.752,1.39,103.535,29.222,1024.961,-9,-9,89,3.088,405.72,2,-9,9,-9,0.29,12.49,344.76,4.21,273.23
AOML_Explorer,Ex0747C9,328.073,24112007,1:44:37,40.077,-73.409,419.91,-9,1024.94,1022.1,13.49,12.79,32.747,1.494,103.542,29.218,1024.942,-9,-9,103,6.691,405.12,2,-9,9,-9,0.3,15.13,332.83,4.18,272.22
AOML_Explorer,Ex0747C9,328.074,24112007,1:47:10,40.077,-73.409,422.01,-9,1025.11,1022.5,13.47,12.79,32.753,1.477,103.472,29.216,1025.11,-9,-9,94,3.603,407.57,2,-9,9,-9,0.28,12.92,341.83,4,272.98
AOML_Explorer,Ex0747C9,328.076,24112007,1:49:43,40.077,-73.409,422.94,-9,1025,1022.5,13.46,12.81,32.738,1.467,103.476,29.21,1025.005,-9,-9,87,6.176,408.78,2,-9,9,-9,0.31,13.37,330.17,4.14,273.19
AOML_Explorer,Ex0747C9,328.078,24112007,1:52:16,40.077,-73.409,422.17,-9,1025.14,1022.1,13.46,12.82,32.704,1.474,104.36,29.207,1025.14,-9,-9,94,6.691,408.28,2,-9,9,-9,0.32,14.35,330.28,4.09,271.55
AOML_Explorer,Ex0747C9,328.08,24112007,1:54:49,40.077,-73.409,421.93,-9,1025.01,1022.4,13.47,12.86,32.687,1.412,103.59,29.204,1025.011,-9,-9,62,7.206,408.55,2,-9,9,-9,0.3,10.87,321.14,4.44,271.42
AOML_Explorer,Ex0747C9,328.082,24112007,1:57:22,40.077,-73.409,421.91,-9,1025.01,1022.5,13.49,12.87,32.693,1.404,103.598,29.2,1025.008,-9,-9,78,4.632,408.33,2,-9,9,-9,0.32,12.11,335.7,4.06,272.53
AOML_Explorer,Ex0747C9,328.083,24112007,1:59:55,40.077,-73.409,420.07,-9,1025.17,1022.7,13.52,12.88,32.705,1.507,103.506,29.197,1025.174,-9,-9,91,4.118,406.24,2,-9,9,-9,0.32,12.89,339.23,4.19,273.14
AOML_Explorer,Ex0747C9,328.098,24112007,2:21:40,40.077,-73.409,410.97,-9,1025.57,1022.7,13.54,12.87,32.705,1.505,103.358,29.238,1025.573,-9,-9,83,7.206,397.11,2,-9,9,-9,0.33,13.37,325.62,4.03,280.31
AOML_Explorer,Ex0747C9,328.1,24112007,2:24:13,40.077,-73.409,406.48,-9,1025.31,1023,13.51,12.84,32.708,1.494,103.282,29.24,1025.312,-9,-9,81,8.235,392.7,2,-9,9,-9,0.34,13.6,320.78,4.03,281.51
AOML_Explorer,Ex0747C9,328.102,24112007,2:26:46,40.077,-73.409,401.39,-9,1025.41,1023,13.52,12.82,32.686,1.469,103.253,29.241,1025.407,-9,-9,75,7.721,387.4,2,-9,9,-9,0.35,12.64,321.24,3.92,280.99
AOML_Explorer,Ex0747C9,328.104,24112007,2:29:19,40.077,-73.409,398.25,-9,1025.33,1022.6,13.5,12.89,32.631,1.451,103.431,29.245,1025.334,-9,-9,96,6.691,385.71,2,-9,9,-9,0.36,14.55,330.27,4.13,281.88
AOML_Explorer,Ex0747C9,328.105,24112007,2:31:52,40.077,-73.409,396.92,-9,1025.54,1022.9,13.51,12.92,32.623,1.459,103.569,29.246,1025.535,-9,-9,93,4.632,384.93,2,-9,9,-9,0.36,13.3,338.07,4.21,282.67
AOML_Explorer,Ex0747C9,328.107,24112007,2:34:25,40.077,-73.409,393.11,-9,1025.65,1022.4,13.55,12.95,32.615,1.472,103.731,29.244,1025.654,-9,-9,94,5.662,380.94,2,-9,9,-9,0.37,13.8,333.81,4.33,282.31
AOML_Explorer,Ex0747C9,328.109,24112007,2:36:58,40.077,-73.409,389.44,-9,1025.68,1023,13.58,12.97,32.608,1.376,103.516,29.246,1025.68,-9,-9,102,6.176,377.3,2,-9,9,-9,0.35,14.72,333.48,4.36,281.75
AOML_Explorer,Ex0747C9,328.111,24112007,2:39:31,40.077,-73.409,387.46,-9,1025.56,1022.6,13.61,13.02,32.593,1.454,103.604,29.25,1025.563,-9,-9,88,5.147,375.67,2,-9,9,-9,0.32,13.03,334.96,4.34,281.12
AOML_Explorer,Ex0747C9,328.113,24112007,2:42:04,40.077,-73.409,386.54,-9,1025.62,1023.2,13.63,13.09,32.576,1.438,103.794,29.253,1025.624,-9,-9,78,7.206,375.47,2,-9,9,-9,0.36,12.77,324.24,4.11,280.58
AOML_Explorer,Ex0747C9,328.114,24112007,2:44:37,40.077,-73.409,385.73,-9,1025.6,1022.5,13.67,13.13,32.565,1.461,103.695,29.257,1025.598,-9,-9,91,7.721,374.68,2,-9,9,-9,0.36,14.52,325.53,4.26,280.75
AOML_Explorer,Ex0747C9,328.116,24112007,2:47:10,40.077,-73.409,384.93,-9,1025.65,1022.9,13.73,13.18,32.552,1.459,103.713,29.258,1025.647,-9,-9,86,5.147,373.73,2,-9,9,-9,0.37,12.87,334.51,4.3,280.82
AOML_Explorer,Ex0747C9,328.118,24112007,2:49:43,40.077,-73.409,383.81,-9,1025.63,1022.4,13.77,13.11,32.59,1.452,103.875,29.262,1025.633,-9,-9,94,7.206,370.94,2,-9,9,-9,0.34,14.65,329.07,4.28,280.19
AOML_Explorer,Ex0747C9,328.12,24112007,2:52:16,40.077,-73.409,382.35,-9,1025.75,1023,13.8,13.05,32.608,1.474,104.131,29.265,1025.755,-9,-9,92,4.118,368.15,2,-9,9,-9,0.28,13.15,340.21,4.16,278.16
AOML_Explorer,Ex0747C9,328.121,24112007,2:54:49,40.077,-73.409,383.2,-9,1025.85,1022.8,13.76,12.98,32.627,1.46,103.973,29.27,1025.85,-9,-9,96,7.206,368.66,2,-9,9,-9,0.28,14.93,329.28,4.13,277.06
AOML_Explorer,Ex0747C9,328.123,24112007,2:57:22,40.077,-73.409,386.56,-9,1025.84,1023,13.72,12.93,32.64,1.362,103.941,29.273,1025.84,-9,-9,94,4.118,371.7,2,-9,9,-9,0.28,13.24,340.19,4.32,277.25
AOML_Explorer,Ex0747C9,328.125,24112007,2:59:55,40.077,-73.409,389.58,-9,1025.73,1023.1,13.67,12.86,32.662,1.459,104.028,29.278,1025.734,-9,-9,8,3.088,374.24,2,-9,9,-9,0.29,9.25,355.08,4.49,277.64
AOML_Explorer,Ex0747C9,328.14,24112007,3:21:40,40.077,-73.409,400.12,-9,1025.81,1023.1,13.54,12.82,32.716,1.361,103.418,29.378,1025.807,-9,-9,97,5.147,386.05,2,-9,9,-9,0.32,13.92,336.99,4.63,277.53
AOML_Explorer,Ex0747C9,328.142,24112007,3:24:13,40.077,-73.409,400.95,-9,1025.84,1023.1,13.56,12.85,32.708,1.359,103.719,29.39,1025.841,-9,-9,101,3.603,386.86,2,-9,9,-9,0.29,13.44,343.22,4.51,277.27
AOML_Explorer,Ex0747C9,328.144,24112007,3:26:46,40.077,-73.409,400.92,-9,1025.94,1023.1,13.54,12.83,32.729,1.379,103.764,29.397,1025.941,-9,-9,105,3.603,386.93,2,-9,9,-9,0.32,13.57,343.79,4.9,277.41
AOML_Explorer,Ex0747C9,328.145,24112007,3:29:19,40.077,-73.409,401.24,-9,1025.98,1023.1,13.56,12.81,32.72,1.351,103.519,29.403,1025.979,-9,-9,106,8.235,386.66,2,-9,9,-9,0.31,16.34,329.34,4.87,277.44
AOML_Explorer,Ex0747C9,328.147,24112007,3:31:52,40.077,-73.409,402.09,-9,1026.05,1023.4,13.55,12.79,32.733,1.384,103.424,29.406,1026.045,-9,-9,106,4.632,387.22,2,-9,9,-9,0.34,14.13,339.83,4.8,278.95
AOML_Explorer,Ex0747C9,328.149,24112007,3:34:25,40.077,-73.409,401.65,-9,1025.98,1023.2,13.54,12.78,32.745,1.379,103.605,29.413,1025.98,-9,-9,105,4.118,386.81,2,-9,9,-9,0.36,13.89,342.53,4.8,279.53
AOML_Explorer,Ex0747C9,328.151,24112007,3:36:58,40.077,-73.409,400.92,-9,1025.98,1023,13.51,12.76,32.759,1.357,103.639,29.412,1025.978,-9,-9,100,5.662,386.3,2,-9,9,-9,0.34,14.38,335.08,4.93,279.43
AOML_Explorer,Ex0747C9,328.152,24112007,3:39:31,40.077,-73.409,400.49,-9,1026.15,1023.1,13.5,12.74,32.768,1.395,103.588,29.416,1026.149,-9,-9,91,3.603,385.76,2,-9,9,-9,0.35,12.81,342.03,5.05,278.79
AOML_Explorer,Ex0747C9,328.154,24112007,3:42:04,40.077,-73.409,400.94,-9,1026.16,1023.4,13.49,12.73,32.761,1.375,103.479,29.419,1026.16,-9,-9,106,6.176,386.3,2,-9,9,-9,0.33,15.14,335.48,4.83,279.03
AOML_Explorer,Ex0747C9,328.156,24112007,3:44:37,40.077,-73.409,401.53,-9,1026.17,1023.5,13.47,12.78,32.753,1.368,103.693,29.421,1026.166,-9,-9,103,3.603,388.01,2,-9,9,-9,0.32,13.48,342.72,4.66,278.11
AOML_Explorer,Ex0747C9,328.158,24112007,3:47:10,40.077,-73.409,402.09,-9,1026.17,1023.5,13.47,12.76,32.762,1.356,103.595,29.426,1026.175,-9,-9,101,4.632,388.16,2,-9,9,-9,0.33,13.84,339.42,4.82,279.41
AOML_Explorer,Ex0747C9,328.16,24112007,3:49:43,40.077,-73.409,402.01,-9,1026.05,1023.2,13.5,12.7,32.776,1.336,103.609,29.427,1026.052,-9,-9,110,5.662,386.62,2,-9,9,-9,0.34,15.18,338.17,4.83,279.9
AOML_Explorer,Ex0747C9,328.161,24112007,3:52:16,40.077,-73.409,401.14,-9,1026.22,1023.7,13.5,12.61,32.786,1.378,103.875,29.431,1026.223,-9,-9,111,7.206,384.52,2,-9,9,-9,0.34,16.32,334.59,4.94,279.18
AOML_Explorer,Ex0747C9,328.163,24112007,3:54:49,40.077,-73.409,401.09,-9,1026.29,1023.6,13.45,12.5,32.792,1.375,103.864,29.434,1026.294,-9,-9,115,4.632,383.34,2,-9,9,-9,0.34,14.85,342.03,4.92,279.81
AOML_Explorer,Ex0747C9,328.165,24112007,3:57:22,40.077,-73.409,401.71,-9,1026.13,1023.3,13.39,12.46,32.768,1.303,103.67,29.44,1026.131,-9,-9,98,4.632,384.27,2,-9,9,-9,0.31,13.72,339.22,5.13,279.09
AOML_Explorer,Ex0747C9,328.167,24112007,3:59:55,40.077,-73.409,402.46,-9,1026.11,1023.1,13.3,12.53,32.757,1.177,103.903,29.442,1026.105,-9,-9,100,4.118,387.5,2,-9,9,-9,0.31,13.57,340.67,5.07,279.24
AOML_Explorer,Ex0747C9,328.182,24112007,4:21:40,40.077,-73.409,402.16,-9,1026.29,1023.7,13.12,12.2,32.766,1.187,102.855,29.496,1026.292,-9,-9,97,4.632,385.1,2,-9,9,-9,0.26,13.62,339.39,5.16,280.48
AOML_Explorer,Ex0747C9,328.183,24112007,4:24:13,40.077,-73.409,405.09,-9,1026.36,1023.7,13.07,12.15,32.771,1.195,102.947,29.498,1026.355,-9,-9,115,4.632,387.86,2,-9,9,-9,0.26,14.96,342.78,4.85,281.79
AOML_Explorer,Ex0747C9,328.185,24112007,4:26:46,40.077,-73.409,406.99,-9,1026.36,1023.5,13.04,12.08,32.778,1.258,103.017,29.496,1026.361,-9,-9,103,5.147,389.01,2,-9,9,-9,0.28,14.42,338.36,5.03,282.56
AOML_Explorer,Ex0747C9,328.187,24112007,4:29:19,38.773,-73.291,408.07,-9,1026.44,1023.8,13,11.97,32.78,1.227,102.84,29.493,1026.443,179.3,24.1,87,3.603,389.04,2,-9,9,-9,0.28,12.65,343.22,4.77,284.22
AOML_Explorer,Ex0747C9,328.189,24112007,4:31:52,38.756,-73.291,408.66,-9,1026.46,1023.9,12.93,11.91,32.767,1.222,103.186,29.493,1026.458,178.7,24.2,64,5.147,389.81,2,-9,9,-9,0.26,11.05,334.25,4.76,284.75
AOML_Explorer,Ex0747C9,328.191,24112007,4:34:25,38.739,-73.291,408.81,-9,1026.52,1023.9,12.86,11.88,32.768,1.212,103,29.491,1026.52,179.2,24.2,106,4.118,390.62,2,-9,9,-9,0.26,13.99,342.74,4.78,284.4
AOML_Explorer,Ex0747C9,328.192,24112007,4:36:58,38.722,-73.29,408.66,-9,1026.56,1023.9,12.79,11.89,32.759,1.236,102.818,29.491,1026.562,179.7,24.3,101,4.118,391.7,2,-9,9,-9,0.25,13.72,342.41,4.94,283.86
AOML_Explorer,Ex0747C9,328.194,24112007,4:39:31,38.705,-73.29,409.19,-9,1026.73,1024.1,12.75,11.91,32.755,1.301,103.286,29.482,1026.733,179.1,24.2,120,6.691,393.33,2,-9,9,-9,0.26,16.68,338.72,4.88,284.51
AOML_Explorer,Ex0747C9,328.196,24112007,4:42:04,38.688,-73.29,409.15,-9,1026.69,1024.1,12.75,11.91,32.762,1.24,103.224,29.478,1026.688,179.9,24.1,102,1.544,393.3,2,-9,9,-9,0.25,12.74,353.16,4.95,284.67
AOML_Explorer,Ex0747C9,328.198,24112007,4:44:37,38.67,-73.29,408.9,-9,1026.7,1024.4,12.76,11.87,32.776,1.25,102.997,29.476,1026.7,178.6,24.3,94,1.029,392.27,2,-9,9,-9,0.26,12.51,354.04,4.83,284.29
AOML_Explorer,Ex0747C9,328.199,24112007,4:47:10,38.653,-73.29,408.9,-9,1026.67,1024.4,12.77,11.88,32.769,1.266,103.057,29.473,1026.666,179,24.4,58,4.118,392.23,2,-9,9,-9,0.25,10.77,340.62,4.79,284.32
AOML_Explorer,Ex0747C9,328.201,24112007,4:49:43,38.636,-73.289,409.12,-9,1026.82,1024.4,12.74,11.82,32.791,1.26,103.313,29.466,1026.825,178.8,24.3,70,2.574,392.03,2,-9,9,-9,0.21,11.76,347.05,4.81,285.54
AOML_Explorer,Ex0747C9,328.203,24112007,4:52:16,38.619,-73.289,409.19,-9,1026.84,1024.5,12.75,11.79,32.789,1.279,103.005,29.463,1026.844,179.5,24.3,86,3.603,391.47,2,-9,9,-9,0.18,12.64,343.4,4.82,286.4
AOML_Explorer,Ex0747C9,328.205,24112007,4:54:49,38.602,-73.289,409.16,-9,1026.89,1024.5,12.71,11.8,32.796,1.282,103.315,29.455,1026.891,177.1,24.4,106,6.176,392.29,2,-9,9,-9,0.18,15.29,334.34,5,285.37
AOML_Explorer,Ex0747C9,328.207,24112007,4:57:22,38.585,-73.288,409.5,-9,1026.74,1024.3,12.67,11.8,32.819,1.252,103.294,29.445,1026.735,178.1,24.5,101,5.147,393.13,2,-9,9,-9,0.18,14.35,337.35,4.94,286.14
AOML_Explorer,Ex0747C9,328.208,24112007,4:59:55,38.567,-73.287,409.32,-9,1026.61,1024.1,12.67,11.8,32.861,1.29,103.444,29.443,1026.61,177.6,24.4,111,3.603,392.85,2,-9,9,-9,0.18,14.15,344.26,5.2,286.25
AOML_Explorer,Ex0747C9,328.223,24112007,5:21:40,38.531,-73.285,383.97,-9,1026.59,1024.6,12.96,12.18,33.243,1.282,103.285,29.469,1026.586,-9,-9,64,2.574,369.78,2,-9,9,-9,0.2,11.42,344.52,5.06,286.25
AOML_Explorer,Ex0747C9,328.225,24112007,5:24:13,38.531,-73.285,380.39,-9,1026.61,1024.6,13.04,11.99,33.188,1.299,103.141,29.471,1026.609,-9,-9,66,1.029,362.4,2,-9,9,-9,0.18,12.03,349.89,5.06,286.61
AOML_Explorer,Ex0747C9,328.227,24112007,5:26:46,38.531,-73.285,378.47,-9,1026.6,1024.4,13,11.93,33.044,1.281,103.174,29.474,1026.597,-9,-9,55,1.029,360.26,2,-9,9,-9,0.16,11.88,351.92,5.26,287.1
AOML_Explorer,Ex0747C9,328.229,24112007,5:29:19,38.531,-73.285,379.76,-9,1026.47,1024.3,12.87,11.83,33.008,1.302,103.254,29.474,1026.473,-9,-9,97,1.544,361.87,2,-9,9,-9,0.18,12.71,348.29,5.13,287.55
AOML_Explorer,Ex0747C9,328.23,24112007,5:31:52,38.531,-73.285,383.42,-9,1026.54,1024.4,12.8,11.69,32.96,1.309,103.559,29.474,1026.542,-9,-9,81,3.088,364.41,2,-9,9,-9,0.17,12.21,341.82,4.97,286.51
AOML_Explorer,Ex0747C9,328.232,24112007,5:34:25,38.531,-73.285,387.39,-9,1026.37,1024.3,12.72,11.67,32.867,1.324,103.26,29.471,1026.373,-9,-9,69,4.118,369.06,2,-9,9,-9,0.18,11.48,336.5,4.95,286.36
AOML_Explorer,Ex0747C9,328.234,24112007,5:36:58,38.531,-73.285,392.21,-9,1026.35,1024.2,12.6,11.72,32.848,1.318,103.394,29.469,1026.354,-9,-9,87,4.118,376.25,2,-9,9,-9,0.19,12.74,336.89,5.1,285.75
AOML_Explorer,Ex0747C9,328.236,24112007,5:39:31,38.531,-73.285,397.3,-9,1026.36,1024.3,12.56,11.81,32.865,1.343,103.47,29.47,1026.363,-9,-9,92,3.603,383.32,2,-9,9,-9,0.22,12.99,339.7,5.25,286.68
AOML_Explorer,Ex0747C9,328.238,24112007,5:42:04,38.531,-73.285,400.48,-9,1026.35,1024.2,12.58,11.92,32.925,1.339,103.679,29.468,1026.351,-9,-9,90,4.632,387.73,2,-9,9,-9,0.23,13.15,335.82,5.08,286.46
AOML_Explorer,Ex0747C9,328.239,24112007,5:44:37,38.531,-73.285,400.49,-9,1026.46,1024.2,12.65,12.16,32.974,1.308,103.435,29.47,1026.456,-9,-9,85,4.632,390.66,2,-9,9,-9,0.25,12.63,334.62,5.04,286.25
AOML_Explorer,Ex0747C9,328.241,24112007,5:47:10,38.531,-73.285,398,-9,1026.51,1024.6,12.74,12.68,33.137,1.33,103.471,29.47,1026.514,-9,-9,100,1.544,395.04,2,-9,9,-9,0.25,12.55,348.46,5.01,284.86
AOML_Explorer,Ex0747C9,328.243,24112007,5:49:43,38.531,-73.285,393.45,-9,1026.66,1024.7,12.93,13.32,33.248,1.281,103.491,29.469,1026.663,-9,-9,61,2.059,397.9,2,-9,9,-9,0.24,11.33,346.25,5.1,283.47
AOML_Explorer,Ex0747C9,328.245,24112007,5:52:16,38.531,-73.285,384.34,-9,1026.75,1024.7,13.32,13.37,33.684,1.316,103.494,29.471,1026.746,-9,-9,87,3.088,383.13,2,-9,9,-9,0.25,12.37,340.94,5.11,281.61
AOML_Explorer,Ex0747C9,328.246,24112007,5:54:49,38.531,-73.285,373.24,-9,1026.6,1024.7,13.81,13.13,33.641,1.32,103.628,29.468,1026.602,-9,-9,22,3.603,360.79,2,-9,9,-9,0.25,8.98,346.51,5.12,281.93
AOML_Explorer,Ex0747C9,328.248,24112007,5:57:22,38.531,-73.285,363.95,-9,1026.57,1024.6,13.96,13.3,33.588,1.301,103.688,29.472,1026.573,-9,-9,9,2.059,352.08,2,-9,9,-9,0.24,10.11,352.92,5.01,281.49
AOML_Explorer,Ex0747C9,328.25,24112007,5:59:55,38.531,-73.285,360.29,-9,1026.76,1024.7,13.86,13.2,33.655,1.285,103.477,29.472,1026.757,-9,-9,335,2.059,348.67,2,-9,9,-9,0.23,10.39,1.15,5.08,281.54
AOML_Explorer,Ex0747C9,328.265,24112007,6:21:40,38.023,-73.248,358.51,-9,1026.9,1024.7,13.62,13.26,33.6,1.338,103.326,29.528,1026.903,178.6,23.9,6,0.515,351.22,2,-9,9,-9,0.29,11.85,358.28,5,283.3
AOML_Explorer,Ex0747C9,328.267,24112007,6:24:13,38.006,-73.247,356.98,-9,1026.71,1024.7,13.73,13.44,33.709,1.32,103.395,29.531,1026.705,179.2,24.1,58,0.515,350.75,2,-9,9,-9,0.29,12.11,357.31,5.18,281.62
AOML_Explorer,Ex0747C9,328.269,24112007,6:26:46,37.989,-73.247,354.49,-9,1026.77,1024.7,13.91,13.39,33.901,1.306,103.23,29.536,1026.772,178.4,23.7,337,0.515,344.98,2,-9,9,-9,0.26,11.79,359.64,5.43,280.05
AOML_Explorer,Ex0747C9,328.274,24112007,6:34:25,37.939,-73.245,356.11,-9,1026.93,1024.7,13.47,12.55,33.284,1.323,103.529,29.537,1026.93,177.2,23.1,78,3.088,340.97,2,-9,9,-9,0.25,11.53,342.45,5.52,283.25
AOML_Explorer,Ex0747C9,328.276,24112007,6:36:58,37.923,-73.244,363.06,-9,1026.96,1024.9,13.27,12.67,33.366,1.303,103.741,29.538,1026.96,176.7,23.4,58,2.059,352.44,2,-9,9,-9,0.23,11.04,348.08,5.49,283.17
AOML_Explorer,Ex0747C9,328.277,24112007,6:39:31,37.906,-73.242,366.59,-9,1027.07,1024.9,13.32,12.82,33.45,1.301,103.703,29.539,1027.068,177,23.4,57,1.544,357.26,2,-9,9,-9,0.27,11.24,350.68,5.38,282.26
AOML_Explorer,Ex0747C9,328.279,24112007,6:42:04,37.89,-73.241,366.86,-9,1027.12,1024.9,13.43,13.21,33.574,1.325,103.784,29.539,1027.124,175.2,23.2,66,4.118,361.7,2,-9,9,-9,0.22,10.88,335.35,5.4,281.46
AOML_Explorer,Ex0747C9,328.281,24112007,6:44:37,37.873,-73.24,365.35,-9,1027.13,1025,13.56,12.21,33.403,1.301,103.685,29.537,1027.133,175.7,23.1,77,3.088,343.74,2,-9,9,-9,0.22,11.59,340.92,5.32,283.22
AOML_Explorer,Ex0747C9,328.285,24112007,6:49:43,37.84,-73.237,367.24,-9,1027,1024.9,13.18,11.86,32.979,1.295,103.616,29.541,1027,175.6,23.6,337,2.574,346.16,2,-9,9,-9,0.18,9.84,1.9,5.37,284.43
AOML_Explorer,Ex0747C9,328.286,24112007,6:52:16,37.824,-73.235,376.77,-9,1027.03,1024.9,12.93,11.87,32.868,1.358,103.698,29.541,1027.032,176,23.4,355,1.544,359.06,2,-9,9,-9,0.19,10.49,357.22,5.32,285.39
AOML_Explorer,Ex0747C9,328.288,24112007,6:54:49,37.807,-73.235,385.39,-9,1026.99,1024.9,12.78,11.85,32.875,1.282,103.66,29.543,1026.986,178.7,23.3,24,2.059,369.27,2,-9,9,-9,0.2,10.12,354.5,5.46,285.47
AOML_Explorer,Ex0747C9,328.29,24112007,6:57:22,37.791,-73.234,391.88,-9,1027.02,1024.9,12.74,11.82,32.9,1.296,103.857,29.542,1027.018,177.9,23.4,39,2.574,375.59,2,-9,9,-9,0.21,10.14,349.07,5.4,286.81
AOML_Explorer,Ex0747C9,328.292,24112007,6:59:55,37.774,-73.233,395.44,-9,1026.96,1024.9,12.73,12.26,32.713,1.323,103.555,29.542,1026.957,178.3,23.4,37,2.574,386.07,2,-9,9,-9,0.2,10.06,349.88,5.51,283.49
AOML_Explorer,Ex0747C9,328.307,24112007,7:21:40,37.632,-73.229,399.56,-9,1027.13,1025,13.08,12.36,32.787,1.316,103.219,29.592,1027.125,178.6,23.3,141,0,386.02,2,-9,9,-9,0.19,11.99,358.86,5.38,279.11
AOML_Explorer,Ex0747C9,328.308,24112007,7:24:13,37.615,-73.228,403.06,-9,1027.02,1024.9,13.11,12.37,32.778,1.331,103.187,29.594,1027.016,179.6,23.3,308,2.059,389.1,2,-9,9,-9,0.19,10.93,8.46,5.43,279.55
AOML_Explorer,Ex0747C9,328.31,24112007,7:26:46,37.599,-73.228,405.93,-9,1027.05,1025,13.14,12.39,32.771,1.317,103.138,29.597,1027.049,179.4,23.5,282,1.029,391.74,2,-9,9,-9,0.19,11.94,4.49,5.41,279.27
AOML_Explorer,Ex0747C9,328.312,24112007,7:29:19,37.582,-73.228,408.36,-9,1027.03,1024.8,13.15,12.41,32.779,1.342,103.162,29.597,1027.027,179,23.4,272,2.574,394.22,2,-9,9,-9,0.17,12.32,11.35,5.58,278.77
AOML_Explorer,Ex0747C9,328.314,24112007,7:31:52,37.566,-73.227,410.06,-9,1027.02,1024.9,13.17,12.43,32.804,1.325,103.165,29.597,1027.017,177.4,23.4,280,0.515,395.79,2,-9,9,-9,0.19,11.96,0.08,5.47,279.52
AOML_Explorer,Ex0747C9,328.316,24112007,7:34:25,37.549,-73.227,410.7,-9,1027.01,1025,13.19,12.44,32.823,1.323,103.668,29.596,1027.012,178,23.3,330,1.544,396.23,2,-9,9,-9,0.19,10.68,2.73,5.62,280.57
AOML_Explorer,Ex0747C9,328.317,24112007,7:36:58,37.533,-73.226,410.2,-9,1027.01,1024.9,13.2,12.41,32.866,1.332,103.705,29.599,1027.014,179.2,23.2,310,0,395.12,2,-9,9,-9,0.21,11.9,359.19,5.62,282.27
AOML_Explorer,Ex0747C9,328.319,24112007,7:39:31,37.517,-73.226,408.67,-9,1027.19,1025,13.21,12.26,32.914,1.346,103.618,29.594,1027.186,178.5,23,356,1.544,391.15,2,-9,9,-9,0.21,10.35,0.1,5.7,283.8
AOML_Explorer,Ex0747C9,328.321,24112007,7:42:04,37.5,-73.225,405.61,-9,1027.08,1025,13.18,12.14,32.936,1.336,103.514,29.594,1027.083,176.6,22.9,49,1.544,386.7,2,-9,9,-9,0.23,10.74,350.98,5.58,284.4
AOML_Explorer,Ex0747C9,328.323,24112007,7:44:37,37.484,-73.224,402.87,-9,1027.24,1025.1,13.07,12.24,32.989,1.33,103.501,29.594,1027.241,177.9,22.9,58,4.632,387.42,2,-9,9,-9,0.27,9.84,335.62,5.63,285.17
AOML_Explorer,Ex0747C9,328.324,24112007,7:47:10,37.468,-73.223,401.29,-9,1027.23,1025.2,12.98,12.25,33.022,1.337,103.76,29.592,1027.228,176.5,22.9,32,3.088,387.67,2,-9,9,-9,0.29,9.17,347.34,5.65,285.38
AOML_Explorer,Ex0747C9,328.326,24112007,7:49:43,37.451,-73.222,399.04,-9,1027.25,1025.1,13.05,12.42,32.926,1.381,103.669,29.592,1027.249,176.7,23,45,1.544,387.09,2,-9,9,-9,0.21,10.69,351.64,5.73,283.96
AOML_Explorer,Ex0747C9,328.328,24112007,7:52:16,37.435,-73.221,395.81,-9,1027.21,1025.1,13.06,12.49,32.948,1.342,103.711,29.592,1027.207,176.5,23.1,37,2.574,384.78,2,-9,9,-9,0.2,9.83,348.48,5.68,284
AOML_Explorer,Ex0747C9,328.33,24112007,7:54:49,37.419,-73.22,395.44,-9,1027.28,1025.2,13.17,12.59,32.948,1.335,103.695,29.592,1027.278,176.4,23.2,8,2.059,384.38,2,-9,9,-9,0.19,9.89,355.78,5.83,283.63
AOML_Explorer,Ex0747C9,328.332,24112007,7:57:22,37.402,-73.219,393.26,-9,1027.31,1025.3,13.24,12.61,32.989,1.323,103.718,29.592,1027.314,175.3,23.2,356,2.059,381.44,2,-9,9,-9,0.21,9.86,357.25,5.75,283.2
AOML_Explorer,Ex0747C9,328.333,24112007,7:59:55,37.386,-73.218,391.51,-9,1027.48,1025.4,13.31,12.94,33.002,1.326,103.59,29.591,1027.477,175.8,23.4,30,4.118,383.89,2,-9,9,-9,0.28,8.53,343.55,5.74,284.05
AOML_Explorer,Ex0747C9,328.348,24112007,8:21:40,37.246,-73.205,348.53,-9,1027.12,1024.9,14.59,14.36,33.598,1.316,103.201,29.631,1027.125,177.4,23.3,302,5.662,343.16,2,-9,9,-9,0.25,10.21,25.55,6.14,275.35